This is the latest recevied weather packets stored in our database for station/object SQ6RR-12. If no packets are shown the sender has not sent any weather packets the latest 1 day(s).
| Time | Temp. | Humidity | Pressure | Rain* | Wind** | Luminosity | Snow |
|---|---|---|---|---|---|---|---|
| 1778098827 | 11.67° C | 10% | 1006.9 hPa | 0 mm | - | - | - |
| 1778095310 | 12.22° C | 10% | 1007.5 hPa | 0 mm | - | - | - |
| 1778093452 | 12.78° C | 10% | 1008.2 hPa | 0 mm | - | - | - |
| 1778092890 | 12.78° C | 10% | 1007.2 hPa | 0 mm | - | - | - |
| 1778092075 | 12.22° C | 10% | 1006.9 hPa | 0 mm | - | - | - |
| 1778091031 | 13.33° C | 10% | 1007 hPa | 0 mm | - | - | - |
| 1778090491 | 12.78° C | 10% | 1006.9 hPa | 0 mm | - | - | - |
| 1778086190 | 14.44° C | 10% | 1006.6 hPa | 0 mm | - | - | - |
| 1778085941 | 14.44° C | 10% | 1006.7 hPa | 0 mm | - | - | - |
| 1778082942 | 17.78° C | 97% | 1007 hPa | 0 mm | - | - | - |
| 1778081091 | 18.33° C | 77% | 1007 hPa | 0 mm | - | - | - |
| 1778078416 | 25.56° C | 37% | 1006.9 hPa | 0 mm | - | - | - |
| 1778077601 | 26.11° C | 38% | 1007 hPa | 0 mm | - | - | - |
| 1778075997 | 25° C | 45% | 1007.8 hPa | 0 mm | - | - | - |
| 1778074671 | 25° C | 45% | 1007.8 hPa | 0 mm | - | - | - |
| 1778074390 | 25° C | 45% | 1007.8 hPa | 0 mm | - | - | - |
| 1778073012 | 25° C | 43% | 1007.9 hPa | 0 mm | - | - | - |
| 1778072736 | 25.56° C | 43% | 1007.8 hPa | 0 mm | - | - | - |
| 1778070082 | 23.33° C | 55% | 1008 hPa | 0 mm | - | - | - |
| 1778069294 | 22.78° C | 58% | 1008 hPa | 0 mm | - | - | - |
| 1778069012 | 21.11° C | 60% | 1007.9 hPa | 0 mm | - | - | - |
| 1778066872 | 21.11° C | 65% | 1007.7 hPa | 0 mm | - | - | - |
| 1778066334 | 21.67° C | 66% | 1007.7 hPa | 0 mm | - | - | - |
| 1778066056 | 21.11° C | 72% | 1007.8 hPa | 0 mm | - | - | - |
| 1778065282 | 20° C | 76% | 1008 hPa | 0 mm | - | - | - |
* Rain latest hour (hover to see other rain measurements)
** Current wind speed in m/s (hover to see current wind gust speed)